Time,TemperatureF,DewpointF,PressureIn,WindDirection,WindDirectionDegrees,WindSpeedMPH,WindSpeedGustMPH,Humidity,HourlyPrecipIn,Conditions,Clouds,dailyrainin,SoftwareType,DateUTC
2013-04-23 00:13:00,55.7,50.0,30.02,SSE,161,1.0,4.0,81,0.02,,,0.01,weatherlink.com 1.10,2013-04-23 05:13:00,
2013-04-23 00:43:00,55.1,50.0,30.01,SSE,161,1.0,3.0,84,0.01,,,0.01,weatherlink.com 1.10,2013-04-23 05:43:00,
2013-04-23 01:29:00,54.6,51.0,29.97,SSE,160,1.0,4.0,86,0.00,,,0.01,weatherlink.com 1.10,2013-04-23 06:29:00,
2013-04-23 02:28:00,53.8,50.0,29.96,SSE,153,1.0,3.0,87,0.00,,,0.01,weatherlink.com 1.10,2013-04-23 07:28:00,
2013-04-23 02:43:00,54.0,50.0,29.96,SSE,153,1.0,4.0,87,0.00,,,0.01,weatherlink.com 1.10,2013-04-23 07:43:00,
2013-04-23 02:58:00,54.2,51.0,29.96,SSE,153,0.0,2.0,87,0.00,,,0.01,weatherlink.com 1.10,2013-04-23 07:58:00,
2013-04-23 03:13:00,54.2,51.0,29.96,SSE,153,0.0,1.0,88,0.00,,,0.01,weatherlink.com 1.10,2013-04-23 08:13:00,
2013-04-23 03:28:00,54.1,50.0,29.95,SSE,153,2.0,3.0,87,0.00,,,0.01,weatherlink.com 1.10,2013-04-23 08:28:00,
2013-04-23 03:43:00,54.0,50.0,29.93,SSE,148,2.0,6.0,87,0.00,,,0.01,weatherlink.com 1.10,2013-04-23 08:43:00,
2013-04-23 03:58:00,53.8,50.0,29.93,SE,136,0.0,6.0,87,0.00,,,0.01,weatherlink.com 1.10,2013-04-23 08:58:00,
2013-04-23 04:13:00,53.6,50.0,29.93,SE,136,0.0,1.0,88,0.00,,,0.01,weatherlink.com 1.10,2013-04-23 09:13:00,
2013-04-23 04:28:00,53.5,50.0,29.92,SE,136,2.0,2.0,88,0.00,,,0.01,weatherlink.com 1.10,2013-04-23 09:28:00,
2013-04-23 04:43:00,53.5,50.0,29.91,SE,136,2.0,4.0,88,0.00,,,0.01,weatherlink.com 1.10,2013-04-23 09:43:00,
2013-04-23 04:58:00,53.5,50.0,29.91,SE,136,0.0,3.0,87,0.00,,,0.01,weatherlink.com 1.10,2013-04-23 09:58:00,
2013-04-23 05:13:00,52.8,49.0,29.93,West,279,0.0,4.0,88,0.00,,,0.01,weatherlink.com 1.10,2013-04-23 10:13:00,
2013-04-23 05:28:00,52.8,49.0,29.93,West,279,0.0,1.0,88,0.00,,,0.01,weatherlink.com 1.10,2013-04-23 10:28:00,
2013-04-23 05:43:00,52.0,49.0,29.93,WNW,283,0.0,3.0,90,0.00,,,0.01,weatherlink.com 1.10,2013-04-23 10:43:00,
2013-04-23 05:58:00,51.5,49.0,29.93,WNW,283,0.0,3.0,91,0.00,,,0.01,weatherlink.com 1.10,2013-04-23 10:58:00,
2013-04-23 06:13:00,51.3,49.0,29.92,WNW,283,0.0,3.0,91,0.00,,,0.01,weatherlink.com 1.10,2013-04-23 11:13:00,
2013-04-23 06:28:00,51.2,49.0,29.92,WNW,284,1.0,3.0,91,0.00,,,0.01,weatherlink.com 1.10,2013-04-23 11:28:00,
2013-04-23 06:43:00,50.9,49.0,29.92,WNW,284,0.0,4.0,92,0.00,,,0.01,weatherlink.com 1.10,2013-04-23 11:43:00,
2013-04-23 06:58:00,52.1,49.0,29.92,NNW,332,7.0,10.0,90,0.00,,,0.01,weatherlink.com 1.10,2013-04-23 11:58:00,
2013-04-23 07:13:00,52.3,49.0,29.93,NNW,331,4.0,9.0,88,0.00,,,0.01,weatherlink.com 1.10,2013-04-23 12:13:00,
2013-04-23 07:28:00,52.1,49.0,29.94,NNW,328,5.0,13.0,88,0.00,,,0.01,weatherlink.com 1.10,2013-04-23 12:28:00,
2013-04-23 07:43:00,51.7,49.0,29.95,NNW,329,6.0,12.0,89,0.00,,,0.01,weatherlink.com 1.10,2013-04-23 12:43:00,
2013-04-23 07:58:00,51.4,49.0,29.95,NNW,333,4.0,11.0,90,0.00,,,0.01,weatherlink.com 1.10,2013-04-23 12:58:00,
2013-04-23 08:13:00,50.0,47.0,29.97,NNW,327,9.0,13.0,90,0.00,,,0.01,weatherlink.com 1.10,2013-04-23 13:13:00,
2013-04-23 08:29:00,48.3,46.0,29.97,NNW,329,12.0,14.0,92,0.01,,,0.02,weatherlink.com 1.10,2013-04-23 13:29:00,
2013-04-23 08:44:00,47.7,46.0,29.96,WNW,301,4.0,9.0,93,0.02,,,0.03,weatherlink.com 1.10,2013-04-23 13:44:00,
2013-04-23 08:59:00,46.4,44.0,29.97,NNW,329,10.0,13.0,91,0.03,,,0.04,weatherlink.com 1.10,2013-04-23 13:59:00,
2013-04-23 09:14:00,45.8,43.0,29.97,NW,324,9.0,14.0,90,0.03,,,0.04,weatherlink.com 1.10,2013-04-23 14:14:00,
2013-04-23 09:29:00,44.9,42.0,29.97,NNW,329,6.0,13.0,90,0.02,,,0.04,weatherlink.com 1.10,2013-04-23 14:29:00,
2013-04-23 09:44:00,44.7,42.0,29.97,NW,316,6.0,10.0,91,0.02,,,0.05,weatherlink.com 1.10,2013-04-23 14:44:00,
2013-04-23 09:59:00,44.5,42.0,29.97,NNW,332,4.0,11.0,92,0.02,,,0.06,weatherlink.com 1.10,2013-04-23 14:59:00,
2013-04-23 10:14:00,44.4,42.0,29.96,NNW,337,7.0,13.0,92,0.03,,,0.07,weatherlink.com 1.10,2013-04-23 15:14:00,
2013-04-23 10:29:00,44.2,42.0,29.96,NNW,331,3.0,9.0,92,0.03,,,0.07,weatherlink.com 1.10,2013-04-23 15:29:00,
2013-04-23 10:44:00,44.2,42.0,29.97,NNW,337,4.0,10.0,92,0.03,,,0.08,weatherlink.com 1.10,2013-04-23 15:44:00,
2013-04-23 10:59:00,43.6,41.0,29.97,NNW,327,6.0,12.0,91,0.02,,,0.08,weatherlink.com 1.10,2013-04-23 15:59:00,
2013-04-23 11:14:00,43.3,41.0,29.98,NW,311,5.0,14.0,91,0.02,,,0.09,weatherlink.com 1.10,2013-04-23 16:14:00,
2013-04-23 11:29:00,42.2,40.0,29.98,NNW,333,6.0,15.0,90,0.02,,,0.09,weatherlink.com 1.10,2013-04-23 16:29:00,
2013-04-23 11:44:00,42.1,40.0,29.99,NNW,328,7.0,16.0,92,0.02,,,0.10,weatherlink.com 1.10,2013-04-23 16:44:00,
2013-04-23 11:59:00,41.6,40.0,29.99,NNW,333,11.0,14.0,92,0.04,,,0.12,weatherlink.com 1.10,2013-04-23 16:59:00,
2013-04-23 12:14:00,41.3,40.0,30.01,NNW,328,8.0,14.0,93,0.05,,,0.14,weatherlink.com 1.10,2013-04-23 17:14:00,
2013-04-23 12:29:00,40.9,39.0,30.00,NNW,331,12.0,14.0,93,0.09,,,0.18,weatherlink.com 1.10,2013-04-23 17:29:00,
2013-04-23 12:44:00,40.6,39.0,29.99,NNW,329,10.0,16.0,93,0.10,,,0.20,weatherlink.com 1.10,2013-04-23 17:44:00,
2013-04-23 12:59:00,40.7,39.0,29.97,NNW,333,12.0,15.0,94,0.10,,,0.22,weatherlink.com 1.10,2013-04-23 17:59:00,
2013-04-23 13:14:00,40.7,39.0,29.95,NNW,332,15.0,17.0,93,0.09,,,0.23,weatherlink.com 1.10,2013-04-23 18:14:00,
2013-04-23 13:29:00,41.1,39.0,29.94,NNW,327,7.0,18.0,93,0.06,,,0.24,weatherlink.com 1.10,2013-04-23 18:29:00,
2013-04-23 13:44:00,41.7,40.0,29.93,NNW,327,13.0,19.0,92,0.04,,,0.24,weatherlink.com 1.10,2013-04-23 18:44:00,
2013-04-23 13:59:00,42.1,41.0,29.93,NNW,344,10.0,17.0,94,0.02,,,0.24,weatherlink.com 1.10,2013-04-23 18:59:00,
2013-04-23 14:14:00,41.4,39.0,29.93,NNW,333,21.0,22.0,92,0.02,,,0.25,weatherlink.com 1.10,2013-04-23 19:14:00,
2013-04-23 14:29:00,41.0,39.0,29.93,NW,326,9.0,17.0,93,0.01,,,0.25,weatherlink.com 1.10,2013-04-23 19:29:00,
2013-04-23 14:44:00,41.2,39.0,29.93,NNW,329,13.0,15.0,93,0.02,,,0.26,weatherlink.com 1.10,2013-04-23 19:44:00,
2013-04-23 14:59:00,41.1,39.0,29.93,NNW,329,15.0,19.0,92,0.02,,,0.26,weatherlink.com 1.10,2013-04-23 19:59:00,
2013-04-23 15:14:00,41.1,39.0,29.94,NNW,334,13.0,18.0,93,0.02,,,0.27,weatherlink.com 1.10,2013-04-23 20:14:00,
2013-04-23 15:29:00,41.1,39.0,29.95,NW,325,5.0,17.0,93,0.03,,,0.28,weatherlink.com 1.10,2013-04-23 20:29:00,
2013-04-23 15:44:00,40.7,39.0,29.95,NNW,333,8.0,17.0,93,0.03,,,0.29,weatherlink.com 1.10,2013-04-23 20:44:00,
2013-04-23 15:59:00,40.7,39.0,29.95,NNW,330,8.0,15.0,94,0.04,,,0.30,weatherlink.com 1.10,2013-04-23 20:59:00,
2013-04-23 16:14:00,40.9,39.0,29.96,NNW,329,9.0,16.0,94,0.04,,,0.31,weatherlink.com 1.10,2013-04-23 21:14:00,
2013-04-23 16:29:00,40.7,39.0,29.95,NNW,332,7.0,17.0,94,0.03,,,0.31,weatherlink.com 1.10,2013-04-23 21:29:00,
2013-04-23 16:44:00,40.7,39.0,29.96,NNW,346,12.0,16.0,93,0.03,,,0.32,weatherlink.com 1.10,2013-04-23 21:44:00,
2013-04-23 16:59:00,40.4,39.0,29.96,NNW,334,13.0,18.0,93,0.02,,,0.32,weatherlink.com 1.10,2013-04-23 21:59:00,
2013-04-23 17:14:00,40.2,38.0,29.96,NNW,329,12.0,17.0,93,0.01,,,0.32,weatherlink.com 1.10,2013-04-23 22:14:00,
2013-04-23 17:29:00,40.0,38.0,29.97,NNW,335,15.0,17.0,93,0.02,,,0.33,weatherlink.com 1.10,2013-04-23 22:29:00,
2013-04-23 17:44:00,39.7,38.0,29.96,NNW,333,13.0,18.0,93,0.02,,,0.34,weatherlink.com 1.10,2013-04-23 22:44:00,
2013-04-23 17:59:00,39.6,38.0,29.96,NNW,328,10.0,18.0,93,0.02,,,0.34,weatherlink.com 1.10,2013-04-23 22:59:00,
2013-04-23 18:15:00,39.6,38.0,29.96,NW,323,14.0,18.0,93,0.02,,,0.34,weatherlink.com 1.10,2013-04-23 23:15:00,
2013-04-23 18:31:00,39.6,38.0,29.96,NNW,335,11.0,18.0,92,0.01,,,0.34,weatherlink.com 1.10,2013-04-23 23:31:00,
2013-04-23 18:45:00,39.4,37.0,29.96,NNW,331,9.0,16.0,92,0.00,,,0.34,weatherlink.com 1.10,2013-04-23 23:45:00,
2013-04-23 19:00:00,39.3,37.0,29.96,NNW,333,13.0,18.0,92,0.01,,,0.35,weatherlink.com 1.10,2013-04-24 00:00:00,
2013-04-23 19:15:00,39.3,38.0,29.96,NNW,329,11.0,17.0,93,0.01,,,0.35,weatherlink.com 1.10,2013-04-24 00:15:00,
2013-04-23 19:30:00,39.1,37.0,29.96,NW,322,10.0,14.0,92,0.01,,,0.35,weatherlink.com 1.10,2013-04-24 00:30:00,
2013-04-23 19:45:00,39.1,37.0,29.96,NNW,329,11.0,15.0,93,0.02,,,0.36,weatherlink.com 1.10,2013-04-24 00:45:00,
2013-04-23 20:00:00,39.0,37.0,29.97,NW,321,5.0,15.0,93,0.01,,,0.36,weatherlink.com 1.10,2013-04-24 01:00:00,
2013-04-23 20:15:00,39.0,37.0,29.96,NNW,328,8.0,14.0,93,0.01,,,0.36,weatherlink.com 1.10,2013-04-24 01:15:00,
2013-04-23 20:30:00,38.8,37.0,29.98,NNW,332,8.0,15.0,92,0.01,,,0.36,weatherlink.com 1.10,2013-04-24 01:30:00,
2013-04-23 20:45:00,38.9,37.0,29.98,NW,320,6.0,12.0,92,0.00,,,0.36,weatherlink.com 1.10,2013-04-24 01:45:00,
2013-04-23 21:00:00,38.8,37.0,29.98,NW,326,7.0,15.0,92,0.01,,,0.37,weatherlink.com 1.10,2013-04-24 02:00:00,
2013-04-23 21:15:00,39.1,37.0,29.99,NW,319,14.0,16.0,92,0.01,,,0.37,weatherlink.com 1.10,2013-04-24 02:15:00,
2013-04-23 21:30:00,39.1,37.0,29.99,NNW,337,9.0,16.0,92,0.02,,,0.38,weatherlink.com 1.10,2013-04-24 02:30:00,
2013-04-23 21:45:00,39.2,37.0,29.99,NNW,330,6.0,12.0,92,0.02,,,0.38,weatherlink.com 1.10,2013-04-24 02:45:00,
2013-04-23 22:15:00,39.3,37.0,29.99,NW,325,6.0,12.0,92,0.02,,,0.39,weatherlink.com 1.10,2013-04-24 03:15:00,
2013-04-23 22:30:00,39.5,37.0,30.00,NNW,331,6.0,12.0,91,0.01,,,0.39,weatherlink.com 1.10,2013-04-24 03:30:00,
2013-04-23 22:45:00,39.6,37.0,30.00,NNW,333,7.0,15.0,91,0.01,,,0.39,weatherlink.com 1.10,2013-04-24 03:45:00,
2013-04-23 23:15:00,39.7,37.0,29.99,NNW,329,7.0,15.0,89,0.00,,,0.39,weatherlink.com 1.10,2013-04-24 04:15:00,
2013-04-23 23:30:00,39.7,37.0,30.01,NNW,331,6.0,11.0,90,0.00,,,0.39,weatherlink.com 1.10,2013-04-24 04:30:00,
2013-04-23 23:45:00,39.5,37.0,30.02,NW,324,8.0,18.0,89,0.00,,,0.39,weatherlink.com 1.10,2013-04-24 04:45:00,